TIME,�g�[�{�C���[-���� [L],�t���O,�����{�C���[-���� [L],�t���O,�g�[�{�C���[-���� [MJ/h],�t���O,�����{�C���[-���� [MJ/h],�t���O
2005/2/1 0:00,0.115276104,0,0,0,16.922532,0,0,0
2005/2/1 0:15,0.076314033,0,0.021090981,0,11.2029,0,3.096156,0
2005/2/1 0:30,0.127673052,0,0.022218065,0,18.742404,0,3.261612,0
2005/2/1 0:45,0.087745014,0,0,0,12.880968,0,0,0
2005/2/1 1:00,0.127673052,0,0,0,18.742404,0,0,0
2005/2/1 1:15,0.127512098,0,0,0,18.718776,0,0,0
2005/2/1 1:30,0.090642997,0,0,0,13.306392,0,0,0
2005/2/1 1:45,0.127512098,0,0,0,18.718776,0,0,0
2005/2/1 2:00,0.102557003,0,0,0,15.055368,0,0,0
2005/2/1 2:15,0.127512098,0,0,0,18.718776,0,0,0
2005/2/1 2:30,0.127512098,0,0,0,18.718776,0,0,0
2005/2/1 2:45,0.102718038,0,0,0,15.079008,0,0,0
2005/2/1 3:00,0.127834005,0,0,0,18.766032,0,0,0
2005/2/1 3:15,0.112217003,0,0,0,16.473456,0,0,0
2005/2/1 3:30,0.127673052,0,0,0,18.742404,0,0,0
2005/2/1 3:45,0.108836076,0,0,0,15.977136,0,0,0
2005/2/1 4:00,0.127673052,0,0,0,18.742404,0,0,0
2005/2/1 4:15,0.127673052,0,0,0,18.742404,0,0,0
2005/2/1 4:30,0.127673052,0,0,0,18.742404,0,0,0
2005/2/1 4:45,0.103362016,0,0,0,15.173544,0,0,0
2005/2/1 5:00,0.127994959,0,0,0,18.78966,0,0,0
2005/2/1 5:15,0.127834005,0,0,0,18.766032,0,0,0
2005/2/1 5:30,0.127834005,0,0,0,18.766032,0,0,0
2005/2/1 5:45,0.127834005,0,0,0,18.766032,0,0,0
2005/2/1 6:00,0.127673052,0,0,0,18.742404,0,0,0
2005/2/1 6:15,0.127994959,0,0,0,18.78966,0,0,0
2005/2/1 6:30,0.139264986,0,0,0,20.4441,0,0,0
2005/2/1 6:45,0.225560926,0,0.019481035,0,33.112344,0,2.859816,0
2005/2/1 7:00,0.199156921,0,0,0,29.236236,0,0,0
2005/2/1 7:15,0.200123052,0,0,0,29.378064,0,0,0
2005/2/1 7:30,0.167278937,0,0,0,24.556548,0,0,0
2005/2/1 7:45,0.213003025,0,0,0,31.268844,0,0,0
2005/2/1 8:00,0.145543978,0,0,0,21.365856,0,0,0
2005/2/1 8:15,0.154721035,0,0,0,22.713048,0,0,0
2005/2/1 8:30,0.210104959,0,0,0,30.843408,0,0,0
2005/2/1 8:45,0.126545967,0,0.005796049,0,18.576948,0,0.85086,0
2005/2/1 9:00,0.165025014,0,0,0,24.225672,0,0,0
2005/2/1 9:15,0.173074986,0,0,0,25.407408,0,0,0
2005/2/1 9:30,0.108513924,0,0,0,15.929844,0,0,0
2005/2/1 9:45,0.127351063,0,0,0,18.695136,0,0,0
2005/2/1 10:00,0.127351063,0,0,0,18.695136,0,0,0
2005/2/1 10:15,0.16486406,0,0,0,24.202044,0,0,0
2005/2/1 10:30,0.126867956,0,0,0,18.624216,0,0,0
2005/2/1 10:45,0.127190027,0,0,0,18.671496,0,0,0
2005/2/1 11:00,0.102878992,0,0,0,15.102636,0,0,0
2005/2/1 11:15,0.072771989,0,0,0,10.682928,0,0,0
2005/2/1 11:30,0.075186948,0,0,0,11.037444,0,0,0
2005/2/1 11:45,0.077762943,0,0,0,11.4156,0,0,0
2005/2/1 12:00,0.06762,0,0.015778038,0,9.926616,0,2.316216,0
2005/2/1 12:15,0.066010054,0,0,0,9.690276,0,0,0
2005/2/1 12:30,0.065688065,0,0,0,9.643008,0,0,0
2005/2/1 12:45,0.06552703,0,0,0,9.619368,0,0,0
2005/2/1 13:00,0.066010054,0,0,0,9.690276,0,0,0
2005/2/1 13:15,0.084685995,0,0,0,12.431904,0,0,0
2005/2/1 13:30,0.085330054,0,0,0,12.526452,0,0,0
2005/2/1 13:45,0.091287057,0,0,0,13.40094,0,0,0
2005/2/1 14:00,0.127190027,0,0,0,18.671496,0,0,0
2005/2/1 14:15,0.064399946,0,0,0,9.453912,0,0,0
2005/2/1 14:30,0.066492997,0,0,0,9.761172,0,0,0
2005/2/1 14:45,0.083720027,0,0,0,12.2901,0,0,0
2005/2/1 15:00,0.107709074,0,0,0,15.811692,0,0,0
2005/2/1 15:15,0.127512016,0,0,0,18.718764,0,0,0
2005/2/1 15:30,0.132342016,0,0,0,19.427808,0,0,0
2005/2/1 15:45,0.127028992,0,0,0,18.647856,0,0,0
2005/2/1 16:00,0.127028992,0,0,0,18.647856,0,0,0
2005/2/1 16:15,0.127028992,0,0,0,18.647856,0,0,0
2005/2/1 16:30,0.127512098,0,0,0,18.718776,0,0,0
2005/2/1 16:45,0.127351063,0,0,0,18.695136,0,0,0
2005/2/1 17:00,0.127512098,0,0,0,18.718776,0,0,0
2005/2/1 17:15,0.127512098,0,0,0,18.718776,0,0,0
2005/2/1 17:30,0.127351063,0,0,0,18.695136,0,0,0
2005/2/1 17:45,0.127512098,0,0.01658297,0,18.718776,0,2.43438,0
2005/2/1 18:00,0.127512098,0,0,0,18.718776,0,0,0
2005/2/1 18:15,0.127512098,0,0.026404005,0,18.718776,0,3.876108,0
2005/2/1 18:30,0.127512098,0,0.084685995,0,18.718776,0,12.431904,0
2005/2/1 18:45,0.127351063,0,0.142001935,0,18.695136,0,20.845884,0
2005/2/1 19:00,0.127190027,0,0,0,18.671496,0,0,0
2005/2/1 19:15,0.127190027,0,0,0,18.671496,0,0,0
2005/2/1 19:30,0.127351063,0,0,0,18.695136,0,0,0
2005/2/1 19:45,0.127351063,0,0,0,18.695136,0,0,0
2005/2/1 20:00,0.127351063,0,0,0,18.695136,0,0,0
2005/2/1 20:15,0.127351063,0,1.030722016,0,18.695136,0,151.309992,0
2005/2/1 20:30,0.127351063,0,0.308154033,0,18.695136,0,45.237012,0
2005/2/1 20:45,0.127673052,0,0.050071063,0,18.742404,0,7.350432,0
2005/2/1 21:00,0.127351063,0,0.014651035,0,18.695136,0,2.150772,0
2005/2/1 21:15,0.127512098,0,0.012557984,0,18.718776,0,1.843512,0
2005/2/1 21:30,0.127512016,0,0.083237084,0,18.718764,0,12.219204,0
2005/2/1 21:45,0.127512098,0,0.065044087,0,18.718776,0,9.548472,0
2005/2/1 22:00,0.156009074,0,0.147314959,0,22.902132,0,21.625836,0
2005/2/1 22:15,0.110768011,0,0,0,16.260744,0,0,0
2005/2/1 22:30,0.127190027,0,0.04347,0,18.671496,0,6.381396,0
2005/2/1 22:45,0.127351063,0,0.021895995,0,18.695136,0,3.214332,0
2005/2/1 23:00,0.127190027,0,0.090642997,0,18.671496,0,13.306392,0
2005/2/1 23:15,0.127351063,0,0.074543052,0,18.695136,0,10.94292,0
2005/2/1 23:30,0.127512098,0,0,0,18.718776,0,0,0
2005/2/1 23:45,0.127512098,0,0,0,18.718776,0,0,0
2005/2/2 0:00,0.066815068,0,0,0,9.808452,0,0,0
2005/2/2 0:15,0.068585967,0,0,0,10.06842,0,0,0
2005/2/2 0:30,0.072611035,0,0,0,10.6593,0,0,0
2005/2/2 0:45,0.079534005,0,0,0,11.675592,0,0,0
2005/2/2 1:00,0.112538992,0,0,0,16.520724,0,0,0
2005/2/2 1:15,0.065687984,0,0,0,9.642996,0,0,0
2005/2/2 1:30,0.105454986,0,0,0,15.480792,0,0,0
2005/2/2 1:45,0.107387003,0,0,0,15.764412,0,0,0
2005/2/2 2:00,0.101751989,0,0,0,14.937192,0,0,0
2005/2/2 2:15,0.066009973,0,0,0,9.690264,0,0,0
2005/2/2 2:30,0.127994959,0,0,0,18.78966,0,0,0
2005/2/2 2:45,0.074704005,0,0,0,10.966548,0,0,0
2005/2/2 3:00,0.127834005,0,0,0,18.766032,0,0,0
2005/2/2 3:15,0.087261989,0,0,0,12.81006,0,0,0
2005/2/2 3:30,0.102557084,0,0,0,15.05538,0,0,0
2005/2/2 3:45,0.109962997,0,0,0,16.142568,0,0,0
2005/2/2 4:00,0.103523052,0,0,0,15.197184,0,0,0
2005/2/2 4:15,0.119944986,0,0,0,17.607924,0,0,0
2005/2/2 4:30,0.06552703,0,0,0,9.619368,0,0,0
2005/2/2 4:45,0.128155995,0,0,0,18.8133,0,0,0
2005/2/2 5:00,0.126223978,0,0,0,18.52968,0,0,0
2005/2/2 5:15,0.09933703,0,0,0,14.582676,0,0,0
2005/2/2 5:30,0.094185041,0,0,0,13.826364,0,0,0
2005/2/2 5:45,0.127995041,0,0,0,18.789672,0,0,0
2005/2/2 6:00,0.12348703,0,0,0,18.127896,0,0,0
2005/2/2 6:15,0.081626975,0,0,0,11.98284,0,0,0
2005/2/2 6:30,0.127834005,0,0,0,18.766032,0,0,0
2005/2/2 6:45,0.12558,0,0,0,18.435144,0,0,0
2005/2/2 7:00,0.209138992,0,0,0,30.701604,0,0,0
2005/2/2 7:15,0.163092997,0,0.568974033,0,23.942052,0,83.525388,0
2005/2/2 7:30,0.191911962,0,0.0483,0,28.172676,0,7.09044,0
2005/2/2 7:45,0.11801297,0,0,0,17.324304,0,0,0
2005/2/2 8:00,0.128800054,0,0,0,18.907848,0,0,0
2005/2/2 8:15,0.149568965,0,0,0,21.956724,0,0,0
2005/2/2 8:30,0.127190027,0,0,0,18.671496,0,0,0
2005/2/2 8:45,0.127190027,0,0,0,18.671496,0,0,0
2005/2/2 9:00,0.210748937,0,0,0,30.937944,0,0,0
2005/2/2 9:15,0.166474005,0,0,0,24.438384,0,0,0
2005/2/2 9:30,0.156814005,0,0.081466022,0,23.020296,0,11.959212,0
2005/2/2 9:45,0.12010594,0,0.125258011,0,17.631552,0,18.387876,0
2005/2/2 10:00,0.066976022,0,0,0,9.83208,0,0,0
2005/2/2 10:15,0.106420954,0,0.01239703,0,15.622596,0,1.819884,0
2005/2/2 10:30,0.114471008,0,0,0,16.804344,0,0,0
2005/2/2 10:45,0.127512098,0,0,0,18.718776,0,0,0
2005/2/2 11:00,0.087101035,0,0,0,12.786432,0,0,0
2005/2/2 11:15,0.114954033,0,0,0,16.875252,0,0,0
2005/2/2 11:30,0.127512098,0,0,0,18.718776,0,0,0
2005/2/2 11:45,0.066010054,0,0,0,9.690276,0,0,0
2005/2/2 12:00,0.127673052,0,0,0,18.742404,0,0,0
2005/2/2 12:15,0.127673052,0,0.009821035,0,18.742404,0,1.441728,0
2005/2/2 12:30,0.127351063,0,0,0,18.695136,0,0,0
2005/2/2 12:45,0.123970054,0,0,0,18.198804,0,0,0
2005/2/2 13:00,0.074864959,0,0,0,10.990176,0,0,0
2005/2/2 13:15,0.127673052,0,0,0,18.742404,0,0,0
2005/2/2 13:30,0.127512098,0,0,0,18.718776,0,0,0
2005/2/2 13:45,0.127673052,0,0,0,18.742404,0,0,0
2005/2/2 14:00,0.064561063,0,0,0,9.477564,0,0,0
2005/2/2 14:15,0.130088011,0,0,0,19.09692,0,0,0
2005/2/2 14:30,0.216062044,0,0,0,31.717908,0,0,0
2005/2/2 14:45,0.126545967,0,0,0,18.576948,0,0,0
2005/2/2 15:00,0.127028992,0,0,0,18.647856,0,0,0
2005/2/2 15:15,0.127351063,0,0,0,18.695136,0,0,0
2005/2/2 15:30,0.146187956,0,0,0,21.460392,0,0,0
2005/2/2 15:45,0.127351063,0,0,0,18.695136,0,0,0
2005/2/2 16:00,0.127351063,0,0,0,18.695136,0,0,0
2005/2/2 16:15,0.137172016,0,0.005313025,0,20.136852,0,0.779952,0
2005/2/2 16:30,0.136849946,0,0.000483025,0,20.089572,0,0.070908,0
2005/2/2 16:45,0.127351063,0,0.005957003,0,18.695136,0,0.874488,0
2005/2/2 17:00,0.155847956,0,0,0,22.87848,0,0,0
2005/2/2 17:15,0.176777984,0,0,0,25.951008,0,0,0
2005/2/2 17:30,0.119944986,0,0,0,17.607924,0,0,0
2005/2/2 17:45,0.127190027,0,0,0,18.671496,0,0,0
2005/2/2 18:00,0.127351063,0,0.034131989,0,18.695136,0,5.010576,0
2005/2/2 18:15,0.127351063,0,0,0,18.695136,0,0,0
2005/2/2 18:30,0.127351063,0,0,0,18.695136,0,0,0
2005/2/2 18:45,0.127512098,0,0,0,18.718776,0,0,0
2005/2/2 19:00,0.127351063,0,0,0,18.695136,0,0,0
2005/2/2 19:15,0.127512098,0,0,0,18.718776,0,0,0
2005/2/2 19:30,0.127351063,0,0,0,18.695136,0,0,0
2005/2/2 19:45,0.146832016,0,0,0,21.55494,0,0,0
2005/2/2 20:00,0.160999946,0,0.036225041,0,23.634792,0,5.317836,0
2005/2/2 20:15,0.171304005,0,0.016099946,0,25.147428,0,2.363472,0
2005/2/2 20:30,0.126707003,0,0,0,18.600588,0,0,0
2005/2/2 20:45,0.127028992,0,0,0,18.647856,0,0,0
2005/2/2 21:00,0.156814005,0,0.050714959,0,23.020296,0,7.444956,0
2005/2/2 21:15,0.126707003,0,0.215900926,0,18.600588,0,31.694256,0
2005/2/2 21:30,0.127028992,0,0,0,18.647856,0,0,0
2005/2/2 21:45,0.127351063,0,0,0,18.695136,0,0,0
2005/2/2 22:00,0.127351063,0,1.169182071,0,18.695136,0,171.635928,0
2005/2/2 22:15,0.127673052,0,0.160195014,0,18.742404,0,23.516628,0
2005/2/2 22:30,0.156330981,0,0.443394114,0,22.949388,0,65.090256,0
2005/2/2 22:45,0.164058965,0,0,0,24.083856,0,0,0
2005/2/2 23:00,0.127028992,0,0,0,18.647856,0,0,0
2005/2/2 23:15,0.127190027,0,0.064722098,0,18.671496,0,9.501204,0
2005/2/2 23:30,0.127512098,0,0.006600981,0,18.718776,0,0.969024,0
2005/2/2 23:45,0.064560981,0,0,0,9.477552,0,0,0
2005/2/3 0:00,0.066009973,0,0,0,9.690264,0,0,0
2005/2/3 0:15,0.065365995,0,0,0,9.595728,0,0,0
2005/2/3 0:30,0.076474986,0,0,0,11.226528,0,0,0
2005/2/3 0:45,0.117208038,0,0,0,17.20614,0,0,0
2005/2/3 1:00,0.127834005,0,0,0,18.766032,0,0,0
2005/2/3 1:15,0.118817984,0,0,0,17.44248,0,0,0
2005/2/3 1:30,0.089355041,0,0,0,13.11732,0,0,0
2005/2/3 1:45,0.127994959,0,0,0,18.78966,0,0,0
2005/2/3 2:00,0.088710981,0,0,0,13.022772,0,0,0
2005/2/3 2:15,0.118978937,0,0,0,17.466108,0,0,0
2005/2/3 2:30,0.127994959,0,0,0,18.78966,0,0,0
2005/2/3 2:45,0.09724406,0,0,0,14.275428,0,0,0
2005/2/3 3:00,0.102878992,0,0,0,15.102636,0,0,0
2005/2/3 3:15,0.128155995,0,0,0,18.8133,0,0,0
2005/2/3 3:30,0.114309973,0,0,0,16.780704,0,0,0
2005/2/3 3:45,0.116885967,0,0,0,17.15886,0,0,0
2005/2/3 4:00,0.104005995,0,0,0,15.26808,0,0,0
2005/2/3 4:15,0.128155995,0,0,0,18.8133,0,0,0
2005/2/3 4:30,0.104005995,0,0,0,15.26808,0,0,0
2005/2/3 4:45,0.128155995,0,0,0,18.8133,0,0,0
2005/2/3 5:00,0.104971962,0,0.020447003,0,15.409884,0,3.00162,0
2005/2/3 5:15,0.128155995,0,0.621621008,0,18.8133,0,91.253964,0
2005/2/3 5:30,0.094667984,0,0,0,13.89726,0,0,0
2005/2/3 5:45,0.128155995,0,0,0,18.8133,0,0,0
2005/2/3 6:00,0.127834005,0,0,0,18.766032,0,0,0
2005/2/3 6:15,0.133307984,0,0,0,19.569612,0,0,0
2005/2/3 6:30,0.206402044,0,0,0,30.29982,0,0,0
2005/2/3 6:45,0.201572044,0,0,0,29.590776,0,0,0
2005/2/3 7:00,0.20076703,0,0,0,29.4726,0,0,0
2005/2/3 7:15,0.156813924,0,0.024793978,0,23.020284,0,3.639756,0
2005/2/3 7:30,0.186276948,0,0.007245041,0,27.345456,0,1.063572,0
2005/2/3 7:45,0.165347003,0,0.022701008,0,24.27294,0,3.332508,0
2005/2/3 8:00,0.161804959,0,0,0,23.752968,0,0,0
2005/2/3 8:15,0.160355967,0,0,0,23.540256,0,0,0
2005/2/3 8:30,0.142646076,0,0,0,20.940444,0,0,0
2005/2/3 8:45,0.126867956,0,0,0,18.624216,0,0,0
2005/2/3 9:00,0.127028992,0,0,0,18.647856,0,0,0
2005/2/3 9:15,0.127028992,0,0,0,18.647856,0,0,0
2005/2/3 9:30,0.127190027,0,0.009981989,0,18.671496,0,1.465356,0
2005/2/3 9:45,0.127190027,0,0,0,18.671496,0,0,0
2005/2/3 10:00,0.127351063,0,0,0,18.695136,0,0,0
2005/2/3 10:15,0.127351063,0,0,0,18.695136,0,0,0
2005/2/3 10:30,0.127351063,0,0,0,18.695136,0,0,0
2005/2/3 10:45,0.127512098,0,0,0,18.718776,0,0,0
2005/2/3 11:00,0.127512098,0,0.015938992,0,18.718776,0,2.339844,0
2005/2/3 11:15,0.127351063,0,0,0,18.695136,0,0,0
2005/2/3 11:30,0.127512098,0,0,0,18.718776,0,0,0
2005/2/3 11:45,0.127512098,0,0,0,18.718776,0,0,0
2005/2/3 12:00,0.127512098,0,0,0,18.718776,0,0,0
2005/2/3 12:15,0.127512098,0,0,0,18.718776,0,0,0
2005/2/3 12:30,0.127512098,0,0,0,18.718776,0,0,0
2005/2/3 12:45,0.127351063,0,0,0,18.695136,0,0,0
2005/2/3 13:00,0.127673052,0,0,0,18.742404,0,0,0
2005/2/3 13:15,0.127512098,0,0,0,18.718776,0,0,0
2005/2/3 13:30,0.127512098,0,0,0,18.718776,0,0,0
2005/2/3 13:45,0.127512098,0,0,0,18.718776,0,0,0
2005/2/3 14:00,0.127673052,0,0,0,18.742404,0,0,0
2005/2/3 14:15,0.127673052,0,0.015938992,0,18.742404,0,2.339844,0
2005/2/3 14:30,0.127673052,0,0,0,18.742404,0,0,0
2005/2/3 14:45,0.127512098,0,0,0,18.718776,0,0,0
2005/2/3 15:00,0.127673052,0,0,0,18.742404,0,0,0
2005/2/3 15:15,0.127512098,0,0.015938992,0,18.718776,0,2.339844,0
2005/2/3 15:30,0.127673052,0,0,0,18.742404,0,0,0
2005/2/3 15:45,0.127512098,0,0,0,18.718776,0,0,0
2005/2/3 16:00,0.127673052,0,0,0,18.742404,0,0,0
2005/2/3 16:15,0.127512098,0,0,0,18.718776,0,0,0
2005/2/3 16:30,0.127673052,0,0,0,18.742404,0,0,0
2005/2/3 16:45,0.127512098,0,0,0,18.718776,0,0,0
2005/2/3 17:00,0.137010981,0,0.021895995,0,20.113212,0,3.214332,0
2005/2/3 17:15,0.127351063,0,0.158101962,0,18.695136,0,23.209368,0
2005/2/3 17:30,0.127673052,0,0.004508011,0,18.742404,0,0.661776,0
2005/2/3 17:45,0.127673052,0,0,0,18.742404,0,0,0
2005/2/3 18:00,0.127834005,0,0,0,18.766032,0,0,0
2005/2/3 18:15,0.127673052,0,0,0,18.742404,0,0,0
2005/2/3 18:30,0.127673052,0,0,0,18.742404,0,0,0
2005/2/3 18:45,0.127834005,0,0.017871008,0,18.766032,0,2.623464,0
2005/2/3 19:00,0.127673052,0,0.008049973,0,18.742404,0,1.181736,0
2005/2/3 19:15,0.127351063,0,0.026565041,0,18.695136,0,3.899748,0
2005/2/3 19:30,0.127028992,0,0,0,18.647856,0,0,0
2005/2/3 19:45,0.127190027,0,0,0,18.671496,0,0,0
2005/2/3 20:00,0.126545967,0,0,0,18.576948,0,0,0
2005/2/3 20:15,0.146993052,0,0,0,21.57858,0,0,0
2005/2/3 20:30,0.125096975,0,0.180158992,0,18.364236,0,26.44734,0
2005/2/3 20:45,0.125579918,0,0.875357003,0,18.435132,0,128.502408,0
2005/2/3 21:00,0.126063025,0,0.077763025,0,18.506052,0,11.415612,0
2005/2/3 21:15,0.155043025,0,0.064560981,0,22.760316,0,9.477552,0
2005/2/3 21:30,0.125901989,0,0.021574005,0,18.482412,0,3.167064,0
2005/2/3 21:45,0.126223978,0,0,0,18.52968,0,0,0
2005/2/3 22:00,0.126223978,0,0.408295995,0,18.52968,0,59.937852,0
2005/2/3 22:15,0.126545886,0,0.064560981,0,18.576936,0,9.477552,0
2005/2/3 22:30,0.15600891,0,0,0,22.902108,0,0,0
2005/2/3 22:45,0.125740954,0,0,0,18.458772,0,0,0
2005/2/3 23:00,0.126384932,0,0.064400027,0,18.553308,0,9.453924,0
2005/2/3 23:15,0.141358038,0,0,0,20.75136,0,0,0
2005/2/3 23:30,0.126223978,0,0,0,18.52968,0,0,0
2005/2/3 23:45,0.126545886,0,0.064883052,0,18.576936,0,9.524832,0
2005/2/4 0:00,0.126384932,0,0,0,18.553308,0,0,0
2005/2/4 0:15,0.126545886,0,0,0,18.576936,0,0,0
2005/2/4 0:30,0.126545886,0,0.043148011,0,18.576936,0,6.334128,0
2005/2/4 0:45,0.126706921,0,0,0,18.600576,0,0,0
2005/2/4 1:00,0.126706921,0,0,0,18.600576,0,0,0
2005/2/4 1:15,0.126867956,0,0,0,18.624216,0,0,0
2005/2/4 1:30,0.126706921,0,0,0,18.600576,0,0,0
2005/2/4 1:45,0.126867956,0,0,0,18.624216,0,0,0
2005/2/4 2:00,0.126867956,0,0,0,18.624216,0,0,0
2005/2/4 2:15,0.126706921,0,0,0,18.600576,0,0,0
2005/2/4 2:30,0.126867956,0,0,0,18.624216,0,0,0
2005/2/4 2:45,0.126867956,0,0,0,18.624216,0,0,0
2005/2/4 3:00,0.126867956,0,0,0,18.624216,0,0,0
2005/2/4 3:15,0.126867956,0,0,0,18.624216,0,0,0
2005/2/4 3:30,0.127028992,0,0,0,18.647856,0,0,0
2005/2/4 3:45,0.127028992,0,0,0,18.647856,0,0,0
2005/2/4 4:00,0.126867956,0,0,0,18.624216,0,0,0
2005/2/4 4:15,0.127028992,0,0,0,18.647856,0,0,0
2005/2/4 4:30,0.127028992,0,0,0,18.647856,0,0,0
2005/2/4 4:45,0.127190027,0,0,0,18.671496,0,0,0
2005/2/4 5:00,0.127028992,0,0,0,18.647856,0,0,0
2005/2/4 5:15,0.127351063,0,0,0,18.695136,0,0,0
2005/2/4 5:30,0.127512098,0,0,0,18.718776,0,0,0
2005/2/4 5:45,0.127512098,0,0,0,18.718776,0,0,0
2005/2/4 6:00,0.127512098,0,0,0,18.718776,0,0,0
2005/2/4 6:15,0.127512098,0,0,0,18.718776,0,0,0
2005/2/4 6:30,0.147636948,0,0.028496975,0,21.673104,0,4.183356,0
2005/2/4 6:45,0.126707003,0,0,0,18.600588,0,0,0
2005/2/4 7:00,0.127190027,0,0.172753079,0,18.671496,0,25.360152,0
2005/2/4 7:15,0.127190027,0,0.140875014,0,18.671496,0,20.680452,0
2005/2/4 7:30,0.153111008,0,0,0,22.476696,0,0,0
2005/2/4 7:45,0.126384932,0,0,0,18.553308,0,0,0
2005/2/4 8:00,0.212198011,0,0,0,31.150668,0,0,0
2005/2/4 8:15,0.202860082,0,0,0,29.77986,0,0,0
2005/2/4 8:30,0.200284005,0,0,0,29.401692,0,0,0
2005/2/4 8:45,0.125740954,0,0,0,18.458772,0,0,0
2005/2/4 9:00,0.126545967,0,0,0,18.576948,0,0,0
2005/2/4 9:15,0.065849019,0,0,0,9.666636,0,0,0
2005/2/4 9:30,0.066009891,0,0.037512997,0,9.690252,0,5.506908,0
2005/2/4 9:45,0.066171008,0,0,0,9.713904,0,0,0
2005/2/4 10:00,0.07728,0,0.138782044,0,11.344704,0,20.373204,0
2005/2/4 10:15,0.066331962,0,0.092253025,0,9.737532,0,13.542744,0
2005/2/4 10:30,0.068585967,0,0,0,10.06842,0,0,0
2005/2/4 10:45,0.068907956,0,0.005795967,0,10.115688,0,0.850848,0
2005/2/4 11:00,0.012920191,0,0,0,1.896684,0,0,0
2005/2/4 11:15,0.000362289,0,0,0,0.053184,0,0,0
2005/2/4 11:30,0,0,0,0,0,0,0,0
2005/2/4 11:45,0,0,0,0,0,0,0,0
2005/2/4 12:00,0,0,0,0,0,0,0,0
2005/2/4 12:15,0,0,0,0,0,0,0,0
2005/2/4 12:30,0,0,0,0,0,0,0,0
2005/2/4 12:45,0,0,0,0,0,0,0,0
2005/2/4 13:00,0.019158965,0,0.327151962,0,2.812536,0,48.025908,0
2005/2/4 13:15,0.072771989,0,0.339388038,0,10.682928,0,49.822164,0
2005/2/4 13:30,0.072288965,0,0,0,10.61202,0,0,0
2005/2/4 13:45,0.077763025,0,0,0,11.415612,0,0,0
2005/2/4 14:00,0.065849019,0,0,0,9.666636,0,0,0
2005/2/4 14:15,0.066976022,0,0,0,9.83208,0,0,0
2005/2/4 14:30,0.067298011,0,0,0,9.879348,0,0,0
2005/2/4 14:45,0.06971297,0,0.018836975,0,10.233864,0,2.765268,0
2005/2/4 15:00,0.124130926,0,0.000321989,0,18.22242,0,0.047268,0
2005/2/4 15:15,0.080660926,0,0,0,11.841024,0,0,0
2005/2/4 15:30,0.066976022,0,0,0,9.83208,0,0,0
2005/2/4 15:45,0.066171008,0,0,0,9.713904,0,0,0
2005/2/4 16:00,0.112860981,0,0,0,16.567992,0,0,0
2005/2/4 16:15,0.127028992,0,0,0,18.647856,0,0,0
2005/2/4 16:30,0.126867956,0,0.015938992,0,18.624216,0,2.339844,0
2005/2/4 16:45,0.126706921,0,0,0,18.600576,0,0,0
2005/2/4 17:00,0.126867956,0,0,0,18.624216,0,0,0
2005/2/4 17:15,0.126867956,0,0,0,18.624216,0,0,0
2005/2/4 17:30,0.126867956,0,0,0,18.624216,0,0,0
2005/2/4 17:45,0.126867956,0,0,0,18.624216,0,0,0
2005/2/4 18:00,0.127028992,0,0,0,18.647856,0,0,0
2005/2/4 18:15,0.127190027,0,0,0,18.671496,0,0,0
2005/2/4 18:30,0.127190027,0,0,0,18.671496,0,0,0
2005/2/4 18:45,0.153271962,0,0,0,22.500324,0,0,0
2005/2/4 19:00,0.064400027,0,0,0,9.453924,0,0,0
2005/2/4 19:15,0.070035041,0,0,0,10.281144,0,0,0
2005/2/4 19:30,0.127190027,0,0.015938992,0,18.671496,0,2.339844,0
2005/2/4 19:45,0.127028992,0,0.187726022,0,18.647856,0,27.55818,0
2005/2/4 20:00,0.127028992,0,0,0,18.647856,0,0,0
2005/2/4 20:15,0.127190027,0,0,0,18.671496,0,0,0
2005/2/4 20:30,0.127351063,0,0,0,18.695136,0,0,0
2005/2/4 20:45,0.127190027,0,0.001932016,0,18.671496,0,0.28362,0
2005/2/4 21:00,0.127190027,0,1.154369918,0,18.671496,0,169.461504,0
2005/2/4 21:15,0.143128937,0,0.064722016,0,21.011328,0,9.501192,0
2005/2/4 21:30,0.126867956,0,0.04347,0,18.624216,0,6.381396,0
2005/2/4 21:45,0.127028992,0,0,0,18.647856,0,0,0
2005/2/4 22:00,0.127351063,0,0.020930027,0,18.695136,0,3.072528,0
2005/2/4 22:15,0.127351063,0,0.101430082,0,18.695136,0,14.889936,0
2005/2/4 22:30,0.127351063,0,0.043792071,0,18.695136,0,6.428676,0
2005/2/4 22:45,0.127512098,0,0,0,18.718776,0,0,0
2005/2/4 23:00,0.169533025,0,0.528884959,0,24.887448,0,77.640312,0
2005/2/4 23:15,0.137815995,0,0.178871035,0,20.231388,0,26.258268,0
2005/2/4 23:30,0.126384932,0,0,0,18.553308,0,0,0
2005/2/4 23:45,0.126867956,0,0.033971035,0,18.624216,0,4.986948,0
2005/2/5 0:00,0.066009973,0,0.01175297,0,9.690264,0,1.725336,0
2005/2/5 0:15,0.069391063,0,0,0,10.186608,0,0,0
2005/2/5 0:30,0.069552016,0,0.064239074,0,10.210236,0,9.430296,0
2005/2/5 0:45,0.069390981,0,0.000483025,0,10.186596,0,0.070908,0
2005/2/5 1:00,0.068103025,0,0,0,9.997524,0,0,0
2005/2/5 1:15,0.067459046,0,0.043148011,0,9.902988,0,6.334128,0
2005/2/5 1:30,0.066976022,0,0,0,9.83208,0,0,0
2005/2/5 1:45,0.068747003,0,0.021574005,0,10.09206,0,3.167064,0
2005/2/5 2:00,0.080339019,0,0.021735041,0,11.793768,0,3.190704,0
2005/2/5 2:15,0.082915014,0,0,0,12.171924,0,0,0
2005/2/5 2:30,0.08420297,0,0.048783025,0,12.360996,0,7.161348,0
2005/2/5 2:45,0.07792406,0,0,0,11.439252,0,0,0
2005/2/5 3:00,0.079855995,0,0,0,11.72286,0,0,0
2005/2/5 3:15,0.086618011,0,0.043148011,0,12.715524,0,6.334128,0
2005/2/5 3:30,0.088067084,0,0,0,12.928248,0,0,0
2005/2/5 3:45,0.071001008,0,0,0,10.422948,0,0,0
2005/2/5 4:00,0.097727084,0,0,0,14.346336,0,0,0
2005/2/5 4:15,0.089515995,0,0,0,13.140948,0,0,0
2005/2/5 4:30,0.110123951,0,0,0,16.166196,0,0,0
2005/2/5 4:45,0.065849019,0,0,0,9.666636,0,0,0
2005/2/5 5:00,0.066653951,0,0,0,9.7848,0,0,0
2005/2/5 5:15,0.127834005,0,0,0,18.766032,0,0,0
2005/2/5 5:30,0.066171008,0,0,0,9.713904,0,0,0
2005/2/5 5:45,0.087745014,0,0,0,12.880968,0,0,0
2005/2/5 6:00,0.12622406,0,0,0,18.529692,0,0,0
2005/2/5 6:15,0.067298011,0,0,0,9.879348,0,0,0
2005/2/5 6:30,0.066976022,0,0,0,9.83208,0,0,0
2005/2/5 6:45,0.127834005,0,0,0,18.766032,0,0,0
2005/2/5 7:00,0.22427297,0,0,0,32.923272,0,0,0
2005/2/5 7:15,0.203665095,0,0,0,29.898036,0,0,0
2005/2/5 7:30,0.203182071,0,0,0,29.827128,0,0,0
2005/2/5 7:45,0.12493594,0,0,0,18.340596,0,0,0
2005/2/5 8:00,0.214934959,0,0,0,31.552452,0,0,0
2005/2/5 8:15,0.173558011,0,0,0,25.478316,0,0,0
2005/2/5 8:30,0.185472016,0,0,0,27.227292,0,0,0
2005/2/5 8:45,0.126707003,0,0,0,18.600588,0,0,0
2005/2/5 9:00,0.149408011,0,0.017549019,0,21.933096,0,2.576196,0
2005/2/5 9:15,0.132019946,0,0,0,19.380528,0,0,0
2005/2/5 9:30,0.127351063,0,0,0,18.695136,0,0,0
2005/2/5 9:45,0.07518703,0,0,0,11.037456,0,0,0
2005/2/5 10:00,0.062950954,0,0,0,9.2412,0,0,0
2005/2/5 10:15,0.071162044,0,0.016100027,0,10.446588,0,2.363484,0
2005/2/5 10:30,0.071645068,0,0,0,10.517496,0,0,0
2005/2/5 10:45,0.071001008,0,0,0,10.422948,0,0,0
2005/2/5 11:00,0.070195995,0,0,0,10.304772,0,0,0
2005/2/5 11:15,0.06971297,0,0,0,10.233864,0,0,0
2005/2/5 11:30,0.070679019,0,0,0,10.37568,0,0,0
2005/2/5 11:45,0.07728,0,0,0,11.344704,0,0,0
2005/2/5 12:00,0.078407084,0,0,0,11.51016,0,0,0
2005/2/5 12:15,0.077923978,0,0,0,11.43924,0,0,0
2005/2/5 12:30,0.076957929,0,0.015938992,0,11.297424,0,2.339844,0
2005/2/5 12:45,0.075992044,0,0,0,11.155632,0,0,0
2005/2/5 13:00,0.075991962,0,0,0,11.15562,0,0,0
2005/2/5 13:15,0.075509019,0,0,0,11.084724,0,0,0
2005/2/5 13:30,0.069230027,0,0,0,10.162968,0,0,0
2005/2/5 13:45,0.06826406,0,0,0,10.021164,0,0,0
2005/2/5 14:00,0.067941989,0,0,0,9.973884,0,0,0
2005/2/5 14:15,0.067781035,0,0,0,9.950256,0,0,0
2005/2/5 14:30,0.067458965,0,0,0,9.902976,0,0,0
2005/2/5 14:45,0.06762,0,0.016260981,0,9.926616,0,2.387112,0
2005/2/5 15:00,0.067298011,0,0.016744005,0,9.879348,0,2.45802,0
2005/2/5 15:15,0.067298011,0,0.404432044,0,9.879348,0,59.370624,0
2005/2/5 15:30,0.066976022,0,0.378510981,0,9.83208,0,55.565412,0
2005/2/5 15:45,0.067458965,0,0.044758038,0,9.902976,0,6.57048,0
2005/2/5 16:00,0.127512016,0,0.000483025,0,18.718764,0,0.070908,0
2005/2/5 16:15,0.066492997,0,0,0,9.761172,0,0,0